Location: Forcarei
(42.5879°N, 8.3520°W)
Time: 04:30:45
(UTC+02:00)

ISS - Visible Passes

Search period start: 28 April 2017 00:00
Search period end: 08 May 2017 00:00
Orbit: 401 x 409 km, 51.6° (Epoch: 28 April)

Date Brightness Start Highest point End Pass type
(mag) Time Alt. Az. Time Alt. Az. Time Alt. Az.
04 May -1.1 06:25:51 10° SSE 06:27:13 12° SE 06:28:37 10° ESE visible
06 May -2.3 06:16:34 12° SSW 06:19:06 28° SE 06:21:58 10° ENE visible
07 May -1.6 05:26:30 15° SE 05:27:07 15° SE 05:29:08 10° E visible
